Home   Weather   Balrampur   Past weeks

Flag for India Past Weather in Balrampur, Uttar Pradesh, India — Yesterday and Last 2 Weeks

Now
54 °F

Fog.


Feels Like: 54 °F
Forecast: 54 / 79 °F
Wind: No wind

Location: Lucknow / Amausi

Current Time: Dec 8, 2016 at 5:48:30 am

Latest Report: Dec 8, 2016 at 5:00 am


Visibility: 0 mi

Pressure: 29.98 "Hg

Humidity: 94%

Dew Point: 52 °F

Location of BalrampurLocation

Past Weather in Balrampur — Graph

°F

Balrampur Temperature Yesterday

Maximum temperature yesterday: 66 °F (at 1:30 pm)
Minimum temperature yesterday: 52 °F (at 10:00 pm)
Average temperature yesterday: 59 °F

High & Low Weather Summary for the Past Weeks

 TemperatureHumidityPressure
High86 °F (Nov 23, 2:30 pm)100% (Nov 27, 5:00 am)30.18 "Hg (Nov 27, 5:00 am)
Low50 °F (Dec 5, 2:00 am)30% (Nov 25, 1:30 pm)29.71 "Hg (Dec 2, 8:00 pm)
Average65 °F79%29.97 "Hg
* Reported Nov 23 4:00 am — Dec 8 4:00 am, Balrampur, Weather by CustomWeather, © 2016

Note: Actual official high and low records may vary slightly from our data, if they occured in-between our weather recording intervals... More about our weather records

Advertising

Balrampur Weather History for the Previous 24 Hours

Scroll right to see more
 ConditionsComfort  
Time TempWeatherWind HumidityBarometerVisibility
4:00 am
Thu, Dec 8
54 °FFog.No wind100%29.98 "Hg0 mi
3:00 am55 °FFog.No wind100%29.98 "Hg0 mi
2:00 am55 °FFog.No wind100%29.98 "Hg0 mi
1:00 am55 °FFog.No wind100%30.01 "Hg0 mi
12:00 am55 °FFog.No wind94%30.01 "Hg0 mi
11:00 pm
Wed, Dec 7
52 °FFog.No wind100%30.01 "Hg0 mi
10:00 pm52 °FFog.No wind100%30.01 "Hg0 mi
9:00 pm55 °FFog.No wind94%30.01 "Hg1 mi
8:30 pm57 °FFog.No wind100%30.01 "Hg1 mi
8:00 pm59 °FFog.No wind94%30.01 "Hg1 mi
7:30 pm59 °FFog.No wind94%30.01 "Hg1 mi
7:00 pm59 °FFog.No wind94%30.01 "Hg1 mi
6:30 pm61 °FFog.No wind88%29.98 "Hg1 mi
6:00 pm61 °FFog.No wind88%29.98 "Hg1 mi
5:30 pm63 °FFog.No wind88%29.98 "Hg1 mi
5:00 pm64 °FHaze.No wind83%29.95 "Hg1 mi
4:30 pm64 °FHaze.No wind83%29.98 "Hg1 mi
4:00 pm64 °FHaze.No wind83%29.98 "Hg1 mi
3:30 pm66 °FHaze.2 mph78%29.98 "Hg1 mi
3:00 pm66 °FHaze.2 mph78%29.98 "Hg1 mi
2:30 pm66 °FHaze.2 mph78%29.98 "Hg1 mi
2:00 pm66 °FHaze.2 mph78%29.98 "Hg1 mi
1:30 pm66 °FHaze.2 mph73%30.01 "Hg1 mi
1:00 pm64 °FHaze.2 mph78%30.01 "Hg1 mi
12:30 pm64 °FFog.2 mph78%30.04 "Hg1 mi
12:00 pm63 °FFog.2 mph83%30.04 "Hg1 mi
11:30 am63 °FFog.5 mph77%30.07 "Hg1 mi
11:00 am61 °FFog.2 mph88%30.07 "Hg1 mi
10:30 am59 °FFog.No wind94%30.09 "Hg1 mi
10:00 am57 °FFog.No wind94%30.09 "Hg1 mi
9:30 am55 °FFog.No wind100%30.09 "Hg1 mi
9:00 am55 °FFog.No wind100%30.09 "Hg1 mi
8:30 am55 °FFog.No wind100%30.07 "Hg1 mi
7:30 am55 °FFog.No wind94%30.04 "Hg1 mi
7:00 am55 °FFog.No wind94%30.04 "Hg0 mi
6:30 am55 °FFog.No wind94%30.04 "Hg0 mi
5:30 am55 °FFog.No wind100%30.01 "Hg0 mi
5:00 am55 °FFog.No wind100%30.01 "Hg0 mi
Weather by CustomWeather, © 2016

See weather overviewHow to use our weather pages